Location: Dodge City Co - Operative Exchange Grain Elevator Number 8
(38.1218°N, 99.7124°W)
Time: 02:43:55
(UTC+00:00)

Cosmos 1689 Rocket - Pass Details

Date: 03 March 2021
Orbit: 350 x 361 km, 97.5° (Epoch: 14 April)

Event Time Altitude Azimuth Distance (km) Brightness Sun altitude
Rises 12:24:46 0° 158° (SSE) 2,147 6.2 -9.2°
Reaches altitude 10° 12:26:41 10° 153° (SSE) 1,311 5.2 -8.8°
Maximum altitude 12:29:24 52° 76° (ENE) 447 2.9 -8.3°
Drops below altitude 10° 12:32:09 10° 358° (N) 1,326 4.8 -7.7°
Sets 12:34:07 0° 354° (N) 2,177 5.8 -7.3°
